STARLINK-35740, 66210

Orbit data source: Space-Track

STARLINK-35740, 66210 is a payload satellite owned by SpaceX/Seattle (US) in LEO that was launched on Tue, 28 Oct 2025 UTC via an FALCON 9 launch vehicle from the Air Force Western Test Range (AFWTR). Payload-class satellites include a variety of spacecraft equipped with specific instruments for various scientific and technological missions. These include communications satellites like Starlink; space stations such as the ISS; scientific satellites like the Hubble; Earth observation satellites from companies like Planet Labs, Umbra, and HawkEye 360; GPS; miniature CubeSats for education and research; and military/defense satellites.

Loading next visibility...
Identifier
66210, 2025-244E
Orbit
LEO
Country
Flag of USUS
Related business
Manufacturer
SpaceX/Seattle
Mission
Operational Commercial Communications
Bus & Motor
STARLINK V2MO, Unknown motor
Mass
575 kg wet, ~530 kg dry
Launch date (UTC)
2025-10-28 (8 months ago)
Launch vehicle
FALCON 9
Launch site
Air Force Western Test Range (AFWTR)
Object type
Payload
Rocket body
Debris
Shape & HBR
Box + 2 Pan, 17.7 m
Radar Cross Section
36.964 m², Large (>1 m²)

Expand to show TLE details & history
Last TLE update: 21 hours ago

TLE from 21 hours ago
0 STARLINK-35740
1 66210U 25244E   26170.98120094  .00018080  00000-0  54480-3 0  9992
2 66210  53.1593 113.8701 0001005  97.3097 262.8020 15.34408499 37338
Epoch: 2026-06-19T23:32Z
TLE epoch observation values (Epoch: 2026-06-19T23:32:55.761Z)
Latitude
0.00001°
Longitude
-147.56462°
Altitude
463.665 km
Speed
7.636 km/s
True Right ascension
07h 35m 28s
True Declination
0° 00' 00"
Sunlit
Object was in daylight at epoch
Visualization orbit readout
Latitude
Unknown
Longitude
Unknown
Altitude
Unknown
Speed
Unknown
Apparent Right ascension
Unknown
Apparent Declination
Unknown
Sunlit
N/A
Visualization observer readout
Local Sidereal Time
07:17:14
Azimuth
Unknown
Elevation
Unknown
Doppler factor
Unknown
Orbital elements
Apogee altitude
463.623 km
Perigee altitude
462.247 km
Semi-major axis
6,841.072 km
Eccentricity
0.0001
Inclination
53.1593°
RAAN
113.8701°
Arg. of periapsis
97.3097°
True anomaly
262.79057°
Mean anomaly
262.802°
Eccentric anomaly
262.79629°
Mean motion
3.83581 °/min
Orbital period
93.85 mins
BSTAR
0.0005448
Loading maneuver chart data...
Computing Atmospheric mass density...
Loading historical data...
Loading historical data...
Loading historical data...
Loading historical data...
Loading historical data...
Loading historical data...
Loading historical data...

Documentation

Showing up to 5 results
|